Regional Weather Roundup
Issued by NWS State College, PA

Home | Current Version | Previous Version | Graphics & Text | Print | Product List | Glossary On
Versions: 1 2 3 4 5 6 7 8 9 10 11 12 13 14 15 16 17 18 19 20 21 22 23 24 25 26 27 28 29 30 31 32 33 34 35 36 37 38 39 40 41 42 43 44 45 46 47 48 49 50
888
ASUS41 KCTP 081003
RWRCTP

REGIONAL WEATHER ROUNDUP
NATIONAL WEATHER SERVICE STATE COLLEGE PA
500 AM EST MON FEB 08 2016

Note: "fair" indicates few or no clouds below 12,000 feet with no
significant weather and/or obstructions to visibility.

* = STATION THAT DOES NOT REPORT PRECIPITATION /E.G. RAIN...SNOW...ETC/
    THUNDER OR FOG.

PAZ002>004-007>009-013>016-020>023-029>032-081100-
WESTERN PENNSYLVANIA

CITY           SKY/WX    TMP DP  RH WIND       PRES   REMARKS
ERIE           MOCLDY    40  23  50 S10       29.68F
MEADVILLE      CLOUDY    36  23  59 CALM      29.67F
FRANKLIN*      CLOUDY    30  21  69 SE7       29.70F
NEW CASTLE     FAIR      36  23  59 VRB5      29.69F
BEAVER COUNTY  NOT AVBL
BUTLER*        CLEAR     34  21  60 SE5       29.72F
PITTSBURGH INT MOCLDY    32  22  66 SE6       29.68F
PITTSBURGH     CLOUDY    35  25  66 S8        29.69
INDIANA*       CLOUDY    27  25  93 CALM      29.74F
LATROBE        CLOUDY    27  25  93 CALM      29.72F
WASHINGTON CO* CLOUDY    30  21  69 S3        29.69F
$$

PAZ004>006-010>012-017>019-024>028-033>037-041-042-045-046-049>053-081100-
CENTRAL PENNSYLVANIA

CITY           SKY/WX    TMP DP  RH WIND       PRES   REMARKS
BRADFORD       CLOUDY    26  21  81 SE3       29.69F
DUBOIS         CLOUDY    32  22  66 SE8       29.69F
CLEARFIELD     CLEAR     24  21  88 N5        29.74F
JOHNSTOWN      CLOUDY    31  19  61 S5        29.69F
ALTOONA        CLEAR     25  20  81 SE3       29.74F
STATE COLLEGE  CLEAR     26  22  85 CALM      29.76S
WILLIAMSPORT   CLOUDY    26  22  84 CALM      29.79F
SELINSGROVE    CLOUDY    24  21  88 CALM      29.80S
FT INDIANTOWN  CLOUDY    33  19  55 NE5       29.76F
CAPITAL CITY   CLOUDY    28  20  71 W5        29.78F
HARRISBURG     CLOUDY    30  23  75 NW12      29.77F
YORK           CLOUDY    27  20  75 W6        29.77S
$$

PAZ038>040-043-044-047-048-054-055-060>062-067>071-081100-
EASTERN PENNSYLVANIA

CITY           SKY/WX    TMP DP  RH WIND       PRES   REMARKS
SCRANTON       PTCLDY    33  21  61 E7        29.75F
MOUNT POCONO   CLOUDY    28  19  69 NE14      29.70F
ALLENTOWN      CLOUDY    35  22  58 NE10      29.76S
QUAKERTOWN*    MOSUNNY   34  23  64 NE7       29.75R
READING        CLOUDY    33  20  58 NE6       29.74F
LANCASTER      CLOUDY    34  21  59 N7        29.75S
COATESVILLE    MOSUNNY   36  21  55 N8        29.73S
POTTSTOWN      PTCLDY    34  21  59 N6        29.76R
BLUE BELL        N/A     34  21  60 NE5       29.72S
DOYLESTOWN     CLOUDY    34  21  59 NE8       29.73R
WILLOW GROVE   NOT AVBL
NORTH PHILA    PTCLDY    37  24  59 NE18      29.75R
PHILADELPHIA   CLOUDY    38  20  48 NE17      29.74R
$$




USA.gov is the U.S. government's official web portal to all federal, state and local government web resources and services.